SRQ6853 RPNS-RPVM

Flight info

Callsign SRQ6853
Flight time 0h 40m
Altitude 12000
Route BAMPA BAMPA3P
Aircraft AT76/M-SDFGIRY/S

Departure

Time 2026-04-26 10:35
Airport Siargao Airport (RPNS)

Arrival

Time 2026-04-26 11:15
Airport Mactan Cebu International Airport (RPVM)
Time Latitude Longitude Altitude Speed Heading
2026-04-26 10:13 9.85690 126.01569 30 ft 0 kts 100°
2026-04-26 10:28 9.85690 126.01565 27 ft 2 kts 103°
2026-04-26 10:28 9.85693 126.01555 30 ft 3 kts 168°
2026-04-26 10:28 9.85711 126.01555 30 ft 2 kts 189°
2026-04-26 10:28 9.85720 126.01557 30 ft 1 kts 190°
2026-04-26 10:29 9.85721 126.01557 30 ft 0 kts 189°
2026-04-26 10:31 9.85711 126.01555 30 ft 4 kts 189°
2026-04-26 10:31 9.85692 126.01552 30 ft 4 kts 189°
2026-04-26 10:31 9.85660 126.01537 30 ft 7 kts 231°
2026-04-26 10:31 9.85622 126.01485 29 ft 11 kts 215°
2026-04-26 10:32 9.85546 126.01470 29 ft 12 kts 189°
2026-04-26 10:32 9.85458 126.01463 27 ft 14 kts 182°
2026-04-26 10:32 9.85363 126.01452 26 ft 14 kts 190°
2026-04-26 10:32 9.85282 126.01438 24 ft 8 kts 191°
2026-04-26 10:33 9.85276 126.01423 29 ft 1 kts 299°
2026-04-26 10:33 9.85288 126.01422 28 ft 3 kts
2026-04-26 10:33 9.85307 126.01426 26 ft 0 kts 11°
2026-04-26 10:34 9.85317 126.01428 26 ft 14 kts
2026-04-26 10:34 9.85620 126.01481 29 ft 73 kts
2026-04-26 10:34 9.86294 126.01606 49 ft 118 kts 10°
2026-04-26 10:34 9.87133 126.01710 375 ft 127 kts
2026-04-26 10:35 9.88097 126.01508 452 ft 157 kts 330°
2026-04-26 10:35 9.88963 126.00864 864 ft 154 kts 334°
2026-04-26 10:35 9.89990 126.00612 1303 ft 155 kts
2026-04-26 10:35 9.91112 126.00666 1697 ft 168 kts 357°
2026-04-26 10:36 9.92134 126.00053 2095 ft 183 kts 304°
2026-04-26 10:36 9.92396 125.98796 2488 ft 190 kts 257°
2026-04-26 10:36 9.91728 125.97660 2869 ft 189 kts 219°
2026-04-26 10:36 9.90750 125.96750 3255 ft 191 kts 221°
2026-04-26 10:37 9.89802 125.95819 3621 ft 188 kts 222°
2026-04-26 10:37 9.88895 125.94891 4009 ft 183 kts 223°
2026-04-26 10:37 9.88054 125.93937 4398 ft 179 kts 229°
2026-04-26 10:37 9.87334 125.92945 4775 ft 175 kts 234°
2026-04-26 10:38 9.86680 125.91904 5154 ft 170 kts 237°
2026-04-26 10:38 9.86141 125.90876 5527 ft 164 kts 243°
2026-04-26 10:38 9.85693 125.89833 5877 ft 160 kts 245°
2026-04-26 10:38 9.85294 125.88778 6137 ft 161 kts 250°
2026-04-26 10:39 9.84975 125.87685 6398 ft 162 kts 255°
2026-04-26 10:39 9.84742 125.86561 6629 ft 163 kts 260°
2026-04-26 10:39 9.84588 125.85379 6873 ft 178 kts 264°
2026-04-26 10:39 9.84496 125.84056 7123 ft 197 kts 266°
2026-04-26 10:40 9.84430 125.82623 7366 ft 210 kts 267°
2026-04-26 10:40 9.84341 125.81100 7611 ft 222 kts 266°
2026-04-26 10:40 9.84218 125.79487 7848 ft 232 kts 265°
2026-04-26 10:40 9.84091 125.77851 8087 ft 239 kts 265°
2026-04-26 10:41 9.83959 125.76148 8326 ft 245 kts 265°
2026-04-26 10:41 9.83826 125.74405 8567 ft 250 kts 265°
2026-04-26 10:41 9.83689 125.72637 8807 ft 254 kts 265°
2026-04-26 10:41 9.83551 125.70863 9179 ft 251 kts 265°
2026-04-26 10:42 9.83414 125.69112 9556 ft 248 kts 265°
2026-04-26 10:42 9.83324 125.67957 9805 ft 247 kts 265°
2026-04-26 10:42 9.83133 125.65650 10254 ft 245 kts 265°
2026-04-26 10:42 9.82990 125.63935 10595 ft 243 kts 265°
2026-04-26 10:43 9.82842 125.62231 10949 ft 242 kts 265°
2026-04-26 10:43 9.82709 125.60536 11297 ft 241 kts 265°
2026-04-26 10:43 9.82577 125.58852 11659 ft 239 kts 265°
2026-04-26 10:43 9.82452 125.57150 11798 ft 248 kts 265°
2026-04-26 10:44 9.82317 125.55372 11851 ft 258 kts 265°
2026-04-26 10:44 9.82177 125.53519 11866 ft 268 kts 265°
2026-04-26 10:44 9.82032 125.51615 11884 ft 273 kts 266°
2026-04-26 10:44 9.81898 125.49692 11888 ft 274 kts 266°
2026-04-26 10:45 9.81759 125.47756 11887 ft 276 kts 266°
2026-04-26 10:45 9.81610 125.45816 11888 ft 277 kts 265°
2026-04-26 10:45 9.81454 125.43873 11891 ft 277 kts 265°
2026-04-26 10:45 9.81295 125.41920 11891 ft 278 kts 265°
2026-04-26 10:46 9.81138 125.39968 11895 ft 278 kts 265°
2026-04-26 10:46 9.80973 125.38011 11891 ft 278 kts 265°
2026-04-26 10:46 9.80817 125.36054 11891 ft 279 kts 266°
2026-04-26 10:46 9.80663 125.34094 11890 ft 279 kts 266°
2026-04-26 10:47 9.80514 125.32131 11888 ft 279 kts 265°
2026-04-26 10:47 9.80360 125.30166 11889 ft 280 kts 265°
2026-04-26 10:47 9.80206 125.28199 11886 ft 280 kts 265°
2026-04-26 10:47 9.80051 125.26235 11887 ft 280 kts 266°
2026-04-26 10:48 9.79899 125.24269 11887 ft 280 kts 265°
2026-04-26 10:48 9.79747 125.22304 11887 ft 280 kts 265°
2026-04-26 10:48 9.79592 125.20341 11885 ft 280 kts 265°
2026-04-26 10:48 9.79440 125.18375 11891 ft 280 kts 265°
2026-04-26 10:49 9.79286 125.16404 11888 ft 280 kts 265°
2026-04-26 10:49 9.79183 125.15102 11888 ft 280 kts 265°
2026-04-26 10:49 9.78980 125.12491 11887 ft 280 kts 265°
2026-04-26 10:49 9.78825 125.10521 11886 ft 281 kts 265°
2026-04-26 10:50 9.78672 125.08554 11881 ft 280 kts 265°
2026-04-26 10:50 9.78572 125.07227 11884 ft 279 kts 265°
2026-04-26 10:50 9.78377 125.04638 11883 ft 278 kts 265°
2026-04-26 10:50 9.78274 125.03321 11881 ft 277 kts 265°
2026-04-26 10:51 9.78122 125.01374 11881 ft 277 kts 265°
2026-04-26 10:51 9.77816 124.97486 11883 ft 276 kts 265°
2026-04-26 10:51 9.77663 124.95543 11884 ft 276 kts 265°
2026-04-26 10:52 9.77510 124.93600 11887 ft 277 kts 265°
2026-04-26 10:52 9.77357 124.91657 11885 ft 277 kts 265°
2026-04-26 10:52 9.77203 124.89712 11883 ft 277 kts 265°
2026-04-26 10:52 9.77052 124.87795 11884 ft 277 kts 265°
2026-04-26 10:53 9.76897 124.85847 11822 ft 279 kts 265°
2026-04-26 10:53 9.76739 124.83857 11638 ft 285 kts 265°
2026-04-26 10:53 9.76582 124.81849 11442 ft 287 kts 265°
2026-04-26 10:54 9.76263 124.77789 11065 ft 290 kts 266°
2026-04-26 10:54 9.76123 124.75743 10877 ft 292 kts 266°
2026-04-26 10:54 9.75978 124.73687 10688 ft 293 kts 265°
2026-04-26 10:54 9.75814 124.71629 10504 ft 294 kts 266°
2026-04-26 10:55 9.75649 124.69560 10319 ft 295 kts 265°
2026-04-26 10:55 9.75482 124.67488 10139 ft 295 kts 266°
2026-04-26 10:55 9.75319 124.65413 10010 ft 294 kts 266°
2026-04-26 10:55 9.75154 124.63361 9945 ft 291 kts 266°
2026-04-26 10:56 9.74997 124.61333 9920 ft 286 kts 266°
2026-04-26 10:56 9.74989 124.60008 9909 ft 282 kts 275°
2026-04-26 10:56 9.75356 124.57392 9891 ft 279 kts 281°
2026-04-26 10:56 9.75692 124.55458 9892 ft 278 kts 281°
2026-04-26 10:57 9.75992 124.53531 9887 ft 276 kts 279°
2026-04-26 10:57 9.76246 124.51608 9882 ft 275 kts 278°
2026-04-26 10:57 9.76486 124.49689 9883 ft 274 kts 278°
2026-04-26 10:57 9.76732 124.47776 9886 ft 273 kts 278°
2026-04-26 10:58 9.76978 124.45873 9884 ft 272 kts 278°
2026-04-26 10:58 9.77224 124.43970 9883 ft 272 kts 278°
2026-04-26 10:58 9.77464 124.42073 9892 ft 271 kts 278°
2026-04-26 10:58 9.77702 124.40175 9888 ft 272 kts 278°
2026-04-26 10:59 9.77938 124.38254 9758 ft 278 kts 278°
2026-04-26 10:59 9.78187 124.36285 9529 ft 285 kts 278°
2026-04-26 10:59 9.78448 124.34284 9327 ft 288 kts 278°
2026-04-26 10:59 9.78713 124.32264 9165 ft 289 kts 278°
2026-04-26 11:00 9.78983 124.30237 8956 ft 291 kts 279°
2026-04-26 11:00 9.79256 124.28200 8732 ft 290 kts 278°
2026-04-26 11:00 9.79514 124.26185 8514 ft 287 kts 278°
2026-04-26 11:00 9.79774 124.24179 8297 ft 286 kts 278°
2026-04-26 11:01 9.80027 124.22192 8072 ft 284 kts 278°
2026-04-26 11:01 9.80280 124.20213 7864 ft 282 kts 278°
2026-04-26 11:01 9.80533 124.18247 7651 ft 281 kts 278°
2026-04-26 11:01 9.80832 124.16326 7427 ft 276 kts 287°
2026-04-26 11:02 9.81733 124.14615 7180 ft 271 kts 308°
2026-04-26 11:02 9.82958 124.13190 7026 ft 266 kts 317°
2026-04-26 11:02 9.84317 124.11935 6874 ft 262 kts 321°
2026-04-26 11:02 9.85659 124.10747 6717 ft 258 kts 321°
2026-04-26 11:03 9.86991 124.09547 6558 ft 255 kts 320°
2026-04-26 11:03 9.88282 124.08333 6398 ft 252 kts 319°
2026-04-26 11:03 9.89558 124.07116 6234 ft 251 kts 319°
2026-04-26 11:03 9.90825 124.05895 6048 ft 251 kts 320°
2026-04-26 11:04 9.92091 124.04681 5871 ft 250 kts 320°
2026-04-26 11:04 9.93349 124.03476 5690 ft 248 kts 320°
2026-04-26 11:04 9.94602 124.02273 5520 ft 247 kts 320°
2026-04-26 11:04 9.95853 124.01082 5345 ft 248 kts 320°
2026-04-26 11:05 9.97108 123.99883 5168 ft 247 kts 320°
2026-04-26 11:05 9.98355 123.98690 5010 ft 246 kts 320°
2026-04-26 11:05 9.99596 123.97504 4868 ft 245 kts 320°
2026-04-26 11:05 10.00833 123.96322 4724 ft 244 kts 320°
2026-04-26 11:06 10.02066 123.95143 4574 ft 243 kts 320°
2026-04-26 11:06 10.03293 123.93968 4425 ft 243 kts 320°
2026-04-26 11:06 10.04520 123.92793 4281 ft 242 kts 320°
2026-04-26 11:06 10.05742 123.91629 4129 ft 239 kts 320°
2026-04-26 11:07 10.06931 123.90491 3982 ft 231 kts 320°
2026-04-26 11:07 10.08062 123.89369 3834 ft 224 kts 319°
2026-04-26 11:07 10.09152 123.88263 3691 ft 219 kts 319°
2026-04-26 11:07 10.10216 123.87183 3543 ft 215 kts 319°
2026-04-26 11:08 10.11265 123.86118 3402 ft 212 kts 319°
2026-04-26 11:08 10.12298 123.85066 3293 ft 209 kts 319°
2026-04-26 11:08 10.13283 123.84072 3153 ft 188 kts 321°
2026-04-26 11:08 10.14357 123.83608 3002 ft 163 kts
2026-04-26 11:09 10.15443 123.83861 2856 ft 158 kts 24°
2026-04-26 11:09 10.16433 123.84296 2708 ft 156 kts 32°
2026-04-26 11:09 10.17360 123.84843 2568 ft 151 kts 37°
2026-04-26 11:09 10.18183 123.85435 2472 ft 139 kts 41°
2026-04-26 11:10 10.18900 123.86033 2443 ft 128 kts 45°
2026-04-26 11:10 10.19545 123.86634 2429 ft 125 kts 46°
2026-04-26 11:10 10.20162 123.87245 2418 ft 123 kts 47°
2026-04-26 11:10 10.20768 123.87849 2427 ft 121 kts 48°
2026-04-26 11:11 10.21373 123.88445 2280 ft 122 kts 49°
2026-04-26 11:11 10.21975 123.89058 2116 ft 122 kts 49°
2026-04-26 11:11 10.22367 123.89461 2009 ft 119 kts 49°
2026-04-26 11:11 10.23127 123.90247 1800 ft 115 kts 48°
2026-04-26 11:12 10.23678 123.90821 1653 ft 112 kts 48°
2026-04-26 11:12 10.24220 123.91383 1480 ft 109 kts 47°
2026-04-26 11:12 10.24750 123.91916 1327 ft 106 kts 46°
2026-04-26 11:12 10.25272 123.92445 1190 ft 106 kts 46°
2026-04-26 11:13 10.25801 123.92968 1062 ft 109 kts 47°
2026-04-26 11:13 10.26362 123.93517 958 ft 113 kts 46°
2026-04-26 11:13 10.26929 123.94086 843 ft 118 kts 46°
2026-04-26 11:13 10.27513 123.94678 699 ft 118 kts 45°
2026-04-26 11:14 10.28082 123.95270 529 ft 116 kts 44°
2026-04-26 11:14 10.28637 123.95838 363 ft 110 kts 41°
2026-04-26 11:14 10.29168 123.96364 224 ft 103 kts 40°
2026-04-26 11:14 10.29672 123.96853 123 ft 98 kts 41°
2026-04-26 11:15 10.30134 123.97312 31 ft 79 kts 40°
2026-04-26 11:15 10.30298 123.97484 33 ft 9 kts 44°
2026-04-26 11:15 10.30336 123.97520 33 ft 6 kts 43°
2026-04-26 11:15 10.30362 123.97547 33 ft 5 kts 44°
2026-04-26 11:16 10.30388 123.97573 33 ft 8 kts 45°
2026-04-26 11:16 10.30445 123.97631 33 ft 16 kts 45°
2026-04-26 11:16 10.30542 123.97731 32 ft 24 kts 45°
2026-04-26 11:16 10.30645 123.97835 32 ft 14 kts 47°
2026-04-26 11:17 10.30706 123.97873 32 ft 11 kts 349°
2026-04-26 11:17 10.30781 123.97807 33 ft 18 kts 315°
2026-04-26 11:17 10.30866 123.97721 34 ft 18 kts 314°
2026-04-26 11:17 10.30941 123.97724 35 ft 10 kts 45°
2026-04-26 11:18 10.31013 123.97794 34 ft 18 kts 45°
2026-04-26 11:18 10.31096 123.97877 35 ft 16 kts 46°
2026-04-26 11:18 10.31176 123.97956 35 ft 13 kts 46°
2026-04-26 11:18 10.31248 123.98031 35 ft 9 kts 40°
2026-04-26 11:19 10.31291 123.98040 35 ft 8 kts 313°
2026-04-26 11:19 10.31322 123.98007 35 ft 0 kts 314°